Weather History for YBCS - January, 2013

Change the Weather History Date:

Saturday, January 12, 2013

  Actual Average Record
Temperature  
Mean Temperature 84 °F -  
Max Temperature 91 °F 89 °F 91 °F (2007)
Min Temperature 77 °F 74 °F 71 °F (2000)
Cooling Degree Days 19    
Growing Degree Days 34 (Base 50)    
Moisture  
Dew Point 75 °F    
Average Humidity 76    
Maximum Humidity 94    
Minimum Humidity 51    
Precipitation  
Precipitation 0.16 in 0.53 in - ()
Sea Level Pressure  
Sea Level Pressure 29.83 in    
Wind  
Wind Speed 8 mph ()    
Max Wind Speed 17 mph    
Max Gust Speed -    
Visibility 6.8 miles    
Events Rain    
Averages and records for this station are not official NWS values.
T = Trace of Precipitation, MM = Missing Value Source: Averaged Metar Reports

Daily Weather History Graph

Daily Weather History Graph

Search for Another Location

Airport or City:

Trip Planner

Search our weather history database for the weather conditions in past years. The results will help you decide how hot, cold, wet, or windy it might be!

Date:

Astronomy

Jan. 12, 2013 Rise Set
Actual Time 5:53 AM AEST 6:56 PM AEST
Civil Twilight 5:30 AM AEST 7:20 PM AEST
Nautical Twilight 5:02 AM AEST 7:48 PM AEST
Astronomical Twilight 4:33 AM AEST 8:16 PM AEST
Moon 6:02 AM AEST (1/12) 7:12 PM AEST (1/12)
Length of Visible Light 13h 50m
Length of Day
13h 03m
New Moon, 0% of the Moon is Illuminated
Jan 12
New Moon
Jan 19
First Quarter
Jan 27
Full
Feb 3
Last Quarter
Feb 10
New

Hourly Weather History & Observations

Time (AEST) Temp. Heat Index Dew Point Humidity Pressure Visibility Wind Dir Wind Speed Gust Speed Precip Events Conditions
12:00 AM 81 °F - 71 °F 65% 29.83 in - SSE 9.2 mph - -   Overcast
12:00 AM 80.6 °F 84.6 °F 71.6 °F 74% 29.83 in 6.2 mi SSE 9.2 mph - N/A   Scattered Clouds
12:30 AM 80.6 °F 84.6 °F 71.6 °F 74% 29.80 in 6.2 mi South 8.1 mph - N/A   Partly Cloudy
1:00 AM 81 °F - 71 °F 65% 29.82 in - SSE 6.9 mph - -  
1:00 AM 80.6 °F 84.6 °F 71.6 °F 74% 29.80 in 6.2 mi SSE 6.9 mph - N/A   Scattered Clouds
1:30 AM 80.6 °F 84.6 °F 71.6 °F 74% 29.80 in 6.2 mi South 9.2 mph - N/A   Mostly Cloudy
2:00 AM 78.8 °F - 73.4 °F 83% 29.80 in 6.2 mi South 9.2 mph - N/A   Light Drizzle
2:30 AM 78.8 °F - 73.4 °F 83% 29.80 in 5.6 mi South 10.4 mph - N/A Rain Light Rain Showers
3:00 AM 80 °F - 74 °F 76% 29.80 in - South 10.4 mph - -   Overcast
3:00 AM 80.6 °F 85.4 °F 73.4 °F 79% 29.80 in 6.2 mi South 10.4 mph - N/A   Mostly Cloudy
3:30 AM 80.6 °F 85.4 °F 73.4 °F 79% 29.80 in 6.2 mi South 9.2 mph - N/A   Mostly Cloudy
4:00 AM 80 °F - 73 °F 74% 29.82 in - South 9.2 mph - -  
4:00 AM 80.6 °F 85.4 °F 73.4 °F 79% 29.80 in 6.2 mi South 9.2 mph - N/A   Partly Cloudy
4:30 AM 80.6 °F 85.4 °F 73.4 °F 79% 29.80 in 5.0 mi South 8.1 mph - N/A Rain Light Rain Showers
5:00 AM 77.0 °F - 75.2 °F 94% 29.83 in 5.0 mi SE 9.2 mph - N/A Rain Light Rain Showers
5:30 AM 78.8 °F - 75.2 °F 89% 29.83 in 6.2 mi South 6.9 mph - N/A Rain Light Rain Showers
6:00 AM 78 °F - 75 °F 86% 29.84 in 12 mi South 5.8 mph - -   Mostly Cloudy
6:00 AM 78.8 °F - 75.2 °F 89% 29.83 in 6.2 mi South 5.8 mph - N/A   Scattered Clouds
6:30 AM 78.8 °F - 75.2 °F 89% 29.83 in 6.2 mi SE 1.2 mph - N/A   Scattered Clouds
7:00 AM 79 °F - 76 °F 89% 29.86 in - North 5.8 mph - -  
7:00 AM 78.8 °F - 77.0 °F 94% 29.83 in 6.2 mi North 5.8 mph - N/A   Mostly Cloudy
7:24 AM 78.8 °F - 77.0 °F 94% 29.86 in 6.2 mi NNW 3.5 mph - N/A Rain Light Rain Showers
7:30 AM 78.8 °F - 75.2 °F 89% 29.86 in 6.2 mi WSW 4.6 mph - N/A Rain Light Rain Showers
7:39 AM 78.8 °F - 77.0 °F 94% 29.86 in 6.2 mi North 5.8 mph - N/A Rain Light Rain Showers
8:00 AM 78.8 °F - 77.0 °F 94% 29.86 in 6.2 mi SSE 5.8 mph - N/A   Mostly Cloudy
8:14 AM 80.6 °F 86.2 °F 75.2 °F 84% 29.86 in 6.2 mi South 6.9 mph - N/A   Scattered Clouds
8:30 AM 80.6 °F 87.1 °F 77.0 °F 89% 29.86 in 6.2 mi SSE 8.1 mph - N/A   Scattered Clouds
9:00 AM 84 °F - 77 °F 75% 29.86 in 16 mi SSW 4.6 mph - -   Partly Cloudy
9:00 AM 84.2 °F 94.1 °F 77.0 °F 79% 29.86 in 6.2 mi South 4.6 mph - N/A   Scattered Clouds
9:27 AM 82.4 °F 89.5 °F 75.2 °F 79% 29.86 in 6.2 mi SSE 4.6 mph - N/A Rain Light Rain Showers
9:30 AM 80.6 °F 87.1 °F 77.0 °F 89% 29.86 in 2.5 mi SSE 4.6 mph - N/A Rain Rain Showers
9:53 AM 82.4 °F 90.9 °F 77.0 °F 84% 29.86 in 6.2 mi South 3.5 mph - N/A   Scattered Clouds
10:00 AM 84 °F - 76 °F 71% 29.86 in - South 2.3 mph - -  
10:00 AM 84.2 °F 94.1 °F 77.0 °F 79% 29.86 in 6.2 mi South 2.3 mph - N/A   Scattered Clouds
10:30 AM 86.0 °F 99.3 °F 78.8 °F 79% 29.83 in 6.2 mi ENE 5.8 mph - N/A   Scattered Clouds
11:00 AM 86.0 °F 96.9 °F 77.0 °F 74% 29.83 in 6.2 mi NE 6.9 mph - N/A   Scattered Clouds
11:30 AM 87.8 °F 102.5 °F 78.8 °F 75% 29.83 in 6.2 mi ENE 10.4 mph - N/A   Scattered Clouds
12:00 PM 87 °F - 76 °F 63% 29.84 in 19 mi ENE 11.5 mph - -   Partly Cloudy
12:00 PM 87.8 °F 99.7 °F 77.0 °F 70% 29.83 in 6.2 mi ENE 11.5 mph - N/A   Scattered Clouds
12:30 PM 87.8 °F 99.7 °F 77.0 °F 70% 29.83 in 6.2 mi ENE 12.7 mph - N/A   Scattered Clouds
1:00 PM 87.8 °F 97.6 °F 75.2 °F 66% 29.83 in 6.2 mi ENE 13.8 mph - N/A   Partly Cloudy
1:30 PM 87.8 °F 97.6 °F 75.2 °F 66% 29.80 in 6.2 mi ENE 13.8 mph - N/A   Partly Cloudy
2:00 PM 91.4 °F 100.1 °F 73.4 °F 55% 29.80 in 6.2 mi East 15.0 mph - N/A   Partly Cloudy
2:30 PM 91.4 °F 100.1 °F 73.4 °F 55% 29.80 in 6.2 mi ENE 12.7 mph - N/A   Partly Cloudy
3:00 PM 89 °F - 74 °F 53% 29.80 in 19 mi East 17.3 mph - -   Partly Cloudy
3:00 PM 89.6 °F 98.2 °F 73.4 °F 59% 29.80 in 6.2 mi East 17.3 mph - N/A   Partly Cloudy
3:30 PM 89.6 °F 98.2 °F 73.4 °F 59% 29.80 in 6.2 mi East 15.0 mph - N/A   Partly Cloudy
4:00 PM 89 °F - 73 °F 51% 29.81 in - East 13.8 mph - -  
4:00 PM 87.8 °F 95.6 °F 73.4 °F 62% 29.80 in 6.2 mi East 13.8 mph - N/A   Partly Cloudy
4:30 PM 87.8 °F 95.6 °F 73.4 °F 62% 29.80 in 6.2 mi East 16.1 mph - N/A   Partly Cloudy
5:00 PM 87.8 °F 95.6 °F 73.4 °F 62% 29.80 in 6.2 mi East 15.0 mph - N/A   Partly Cloudy
5:30 PM 86.0 °F 93.4 °F 73.4 °F 66% 29.80 in 6.2 mi East 11.5 mph - N/A   Partly Cloudy
6:00 PM 85 °F - 74 °F 61% 29.81 in - East 12.7 mph - -  
6:00 PM 84.2 °F 90.9 °F 73.4 °F 70% 29.80 in 6.2 mi East 12.7 mph - N/A   Partly Cloudy
6:30 PM 84.2 °F 90.9 °F 73.4 °F 70% 29.80 in 6.2 mi East 10.4 mph - N/A   Partly Cloudy
7:00 PM 83 °F - 74 °F 69% 29.83 in - ESE 9.2 mph - -  
7:00 PM 84.2 °F 92.3 °F 75.2 °F 74% 29.80 in 6.2 mi ESE 9.2 mph - N/A   Partly Cloudy
7:30 PM 82.4 °F 89.5 °F 75.2 °F 79% 29.83 in 6.2 mi SE 8.1 mph - N/A   Partly Cloudy
8:00 PM 82.4 °F 89.5 °F 75.2 °F 79% 29.83 in 6.2 mi South 3.5 mph - N/A   Partly Cloudy
8:30 PM 80.6 °F 86.2 °F 75.2 °F 84% 29.83 in 6.2 mi SSE 4.6 mph - N/A   Partly Cloudy
9:00 PM 81 °F - 75 °F 76% 29.83 in - South 8.1 mph - -  
9:00 PM 80.6 °F 86.2 °F 75.2 °F 84% 29.83 in 6.2 mi South 8.1 mph - N/A   Partly Cloudy
9:30 PM 80.6 °F 86.2 °F 75.2 °F 84% 29.83 in 6.2 mi South 6.9 mph - N/A   Partly Cloudy
10:00 PM 81 °F - 74 °F 75% 29.84 in - South 6.9 mph - -  
10:00 PM 80.6 °F 86.2 °F 75.2 °F 84% 29.83 in 6.2 mi South 6.9 mph - N/A   Partly Cloudy
10:30 PM 80.6 °F 86.2 °F 75.2 °F 84% 29.83 in 6.2 mi South 6.9 mph - N/A   Partly Cloudy
11:00 PM 80.6 °F 86.2 °F 75.2 °F 84% 29.83 in 6.2 mi South 6.9 mph - N/A   Partly Cloudy
11:30 PM 80.6 °F 85.4 °F 73.4 °F 79% 29.80 in 6.2 mi South 5.8 mph - N/A   Partly Cloudy